Location: Buckenweiler
(49.0667°N, 10.2500°E)
Time: 17:26:49
(UTC+00:00)

Cosmos 1140 Rocket - Pass Details

Date: 18 January 2026
Orbit: 739 x 763 km, 74.1° (Epoch: 16 February)

Event Time Altitude Azimuth Distance (km) Brightness Sun altitude
Rises 04:28:36 0° 188° (S) 3,161 6.6 -25.2°
Reaches altitude 10° 04:30:58 10° 184° (S) 2,244 5.9 -24.8°
Maximum altitude 04:35:55 55° 107° (ESE) 892 4.1 -24.0°
Drops below altitude 10° 04:40:55 10° 31° (NNE) 2,271 6.2 -23.2°
Sets 04:43:20 0° 27° (NNE) 3,203 7.0 -22.8°
